This is the latest recevied weather packets stored in our database for station/object N5ZP. If no packets are shown the sender has not sent any weather packets the latest 10 day(s).
| Time | Temp. | Humidity | Pressure | Rain* | Wind** | Luminosity | Snow |
|---|---|---|---|---|---|---|---|
| 1777906625 | 21.11° C | 66% | 1009.3 hPa | 0 mm | - | 472 W/m² | - |
| 1777906320 | 21.11° C | 65% | 1009.4 hPa | 0 mm | - | 412 W/m² | - |
| 1777906017 | 21.11° C | 67% | 1009.4 hPa | 0 mm | - | 422 W/m² | - |
| 1777905713 | 20.56° C | 67% | 1009.4 hPa | 0 mm | - | 298 W/m² | - |
| 1777905410 | 21.11° C | 67% | 1009.6 hPa | 0 mm | - | 241 W/m² | - |
| 1777905108 | 21.11° C | 66% | 1009.5 hPa | 0 mm | - | 331 W/m² | - |
| 1777904805 | 20.56° C | 67% | 1009.6 hPa | 0 mm | - | 419 W/m² | - |
| 1777904502 | 20.56° C | 66% | 1009.6 hPa | 0 mm | - | 263 W/m² | - |
| 1777904198 | 20.56° C | 67% | 1009.5 hPa | 0 mm | - | 337 W/m² | - |
| 1777903896 | 20° C | 68% | 1009.5 hPa | 0 mm | - | 323 W/m² | - |
| 1777903593 | 20° C | 70% | 1009.3 hPa | 0 mm | - | 272 W/m² | - |
| 1777903288 | 20° C | 69% | 1009.5 hPa | 0 mm | - | 198 W/m² | - |
| 1777902985 | 20° C | 68% | 1009.4 hPa | 0 mm | - | 253 W/m² | - |
| 1777902682 | 20° C | 69% | 1009.7 hPa | 0 mm | - | 281 W/m² | - |
| 1777902380 | 19.44° C | 70% | 1009.8 hPa | 0 mm | - | 243 W/m² | - |
| 1777902076 | 19.44° C | 71% | 1009.7 hPa | 0 mm | - | 209 W/m² | - |
| 1777901775 | 18.89° C | 72% | 1009.6 hPa | 0 mm | - | 206 W/m² | - |
| 1777901471 | 18.33° C | 73% | 1009.6 hPa | 0 mm | - | 175 W/m² | - |
| 1777901169 | 17.78° C | 75% | 1009.5 hPa | 0 mm | - | 159 W/m² | - |
| 1777900866 | 17.78° C | 76% | 1009.3 hPa | 0 mm | - | 125 W/m² | - |
| 1777900563 | 17.22° C | 75% | 1009.6 hPa | 0 mm | - | 97 W/m² | - |
| 1777900260 | 17.78° C | 74% | 1009.4 hPa | 0 mm | - | 82 W/m² | - |
| 1777899956 | 17.78° C | 73% | 1009.7 hPa | 0 mm | - | 86 W/m² | - |
| 1777899654 | 17.78° C | 73% | 1009.5 hPa | 0 mm | - | 147 W/m² | - |
| 1777899351 | 17.78° C | 73% | 1009.5 hPa | 0 mm | - | 132 W/m² | - |
* Rain latest hour (hover to see other rain measurements)
** Current wind speed in m/s (hover to see current wind gust speed)